Change the Weather History Date:

Saturday, December 7, 2013

  Actual Average Record
Temperature  
Mean Temperature 54 °F -  
Max Temperature 66 °F 57 °F 68 °F (2010)
Min Temperature 41 °F 45 °F 39 °F (1996)
Degree Days  
Heating Degree Days 12    
Growing Degree Days 4 (Base 50)    
Moisture  
Dew Point 40 °F    
Average Humidity 64    
Maximum Humidity 82    
Minimum Humidity 40    
Precipitation  
Precipitation 0.00 in - - ()
Sea Level Pressure  
Sea Level Pressure 30.20 in    
Wind  
Wind Speed 8 mph ()    
Max Wind Speed 10 mph    
Max Gust Speed -    
Averages and records for this station are not official NWS values.
T = Trace of Precipitation, MM = Missing Value Source: Averaged Metar Reports

Daily Weather History Graph

Daily Weather History Graph

Search for Another Location

Airport or City:

Trip Planner

Search our weather history database for the weather conditions in past years. The results will help you decide how hot, cold, wet, or windy it might be!

Date:

Astronomy

Dec. 07, 2013 Rise Set
Actual Time 8:24 AM CET 6:09 PM CET
Civil Twilight 7:55 AM CET 6:37 PM CET
Nautical Twilight 7:23 AM CET 7:10 PM CET
Astronomical Twilight 6:52 AM CET 7:41 PM CET
Moon 12:05 PM CET (12/7) 11:29 PM CET (12/7)
Length of Visible Light 10h 42m
Length of Day
9h 44m
Waxing Crescent, 26% of the Moon is Illuminated
Dec 7
Waxing Crescent
Dec 9
First Quarter
Dec 17
Full
Dec 25
Last Quarter
Jan 1
New

Hourly Weather History & Observations

Time (CET) Temp. Windchill Dew Point Humidity Pressure Visibility Wind Dir Wind Speed Gust Speed Precip Events Conditions
12:00 AM 51.8 °F - 44.6 °F 76% 30.18 in - East 10.4 mph - N/A   Clear
1:00 AM 55.4 °F - 44.6 °F 67% 30.18 in - ESE 9.2 mph - N/A   Clear
2:00 AM 53.6 °F - 44.6 °F 72% 30.18 in - East 10.4 mph - N/A   Clear
3:00 AM 50.0 °F - 42.8 °F 76% 30.18 in - East 10.4 mph - N/A   Clear
4:00 AM 48.2 °F - 39.2 °F 71% 30.18 in - NE 8.1 mph - N/A   Clear
5:00 AM 46.4 °F 41.9 °F 37.4 °F 71% 30.18 in - NE 9.2 mph - N/A   Clear
6:00 AM 44.6 °F 40.7 °F 35.6 °F 71% 30.18 in - NNE 6.9 mph - N/A   Clear
7:00 AM 42.8 °F 37.5 °F 35.6 °F 76% 30.18 in - NNE 9.2 mph - N/A   Clear
8:00 AM 41.0 °F 35.2 °F 35.6 °F 81% 30.21 in - NNE 9.2 mph - N/A   Clear
9:00 AM 41.0 °F 34.7 °F 35.6 °F 81% 30.21 in - NNE 10.4 mph - N/A   Clear
10:00 AM 44.6 °F 39.7 °F 37.4 °F 76% 30.21 in - NNE 9.2 mph - N/A   Clear
11:00 AM 51.8 °F - 39.2 °F 62% 30.24 in - NNE 9.2 mph - N/A   Clear
12:00 PM 55.4 °F - 41.0 °F 58% 30.24 in - NNE 9.2 mph - N/A   Clear
1:00 PM 60.8 °F - 41.0 °F 48% 30.21 in - NNE 10.4 mph - N/A   Clear
2:00 PM 62.6 °F - 42.8 °F 48% 30.21 in - NE 8.1 mph - N/A   Clear
3:00 PM 64.4 °F - 41.0 °F 42% 30.18 in - NNE 9.2 mph - N/A   Clear
4:00 PM 66.2 °F - 41.0 °F 40% 30.18 in - NE 6.9 mph - N/A   Clear
5:00 PM 64.4 °F - 39.2 °F 40% 30.18 in - NE 8.1 mph - N/A   Clear
6:00 PM 62.6 °F - 41.0 °F 45% 30.21 in - NNE 6.9 mph - N/A   Clear
7:00 PM 57.2 °F - 39.2 °F 51% 30.21 in - Variable 2.3 mph - N/A   Clear
8:00 PM 53.6 °F - 37.4 °F 54% 30.24 in - Variable 2.3 mph - N/A   Clear
9:00 PM 51.8 °F - 41.0 °F 67% 30.24 in - East 4.6 mph - N/A   Clear
10:00 PM 51.8 °F - 44.6 °F 76% 30.24 in - ESE 4.6 mph - N/A   Clear
11:00 PM 51.8 °F - 46.4 °F 82% 30.27 in - ESE 5.8 mph - N/A   Clear